Home > Weather > Niš > Past weeks

Flag for Serbia Weather for the Past 2 Weeks in Niš, Serbia

Now
50 °F

Passing clouds.


Feels Like: 47 °F
Forecast: 44 / 59 °F
Wind: 7 mph from South

Location: Nis Airport

Current Time: Feb 9, 2016 at 8:05:54 PM

Latest Report: Feb 9, 2016 at 7:30 PM


Visibility: N/A

Pressure: 29.95 "Hg

Humidity: 62%

Dew point: 37 °F

Location of NišLocation

Historic Weather in Niš — Graph

°F

Niš Temperature Yesterday

Maximum temperature yesterday: 55 °F (at 12:30 PM)
Minimum temperature yesterday: 36 °F (at 7:00 AM)
Average temperature yesterday: 46 °F

High & Low Weather Summary for the Past Weeks

 TemperatureHumidityPressure
High68 °F (Feb 3, 12:00 PM)100% (Jan 25, 8:30 PM)30.48 "Hg (Jan 25, 8:30 PM)
Low25 °F (Feb 7, 7:00 AM)29% (Feb 7, 3:30 PM)29.80 "Hg (Feb 4, 4:00 AM)
Average43 °F75%30.24 "Hg
* Reported Jan 25 7:00 PM — Feb 9 7:00 PM, Niš, Weather by CustomWeather, © 2016

Note: Actual official high and low records may vary slightly from our data, if they occured in-between our weather recording intervals... More about our weather records

Advertising

Niš Weather History for the Previous 24 Hours

 ConditionsComfort  
Time TempWeatherWind HumidityBarometerVisibility
7:00 PM
Tue, Feb 9
55 °FPassing clouds.5 mph51%29.95 "HgN/A
6:30 PM55 °FPassing clouds.6 mph51%29.95 "HgN/A
6:00 PM57 °FPassing clouds.9 mph48%29.95 "HgN/A
5:30 PM57 °FPassing clouds.7 mph48%29.95 "HgN/A
5:00 PM57 °FPassing clouds.6 mph48%29.95 "HgN/A
4:30 PM57 °FPassing clouds.6 mph48%29.98 "HgN/A
4:00 PM59 °FPassing clouds.8 mph48%29.98 "HgN/A
3:30 PM59 °FScattered clouds.8 mph48%29.98 "HgN/A
3:00 PM61 °FScattered clouds.7 mph45%30.01 "HgN/A
2:30 PM61 °FScattered clouds.10 mph45%30.01 "HgN/A
2:00 PM61 °FScattered clouds.12 mph45%30.01 "HgN/A
1:30 PM61 °FScattered clouds.10 mph45%30.04 "HgN/A
1:00 PM61 °FScattered clouds.10 mph45%30.04 "HgN/A
12:30 PM61 °FScattered clouds.12 mph42%30.07 "HgN/A
12:00 PM59 °FScattered clouds.12 mph45%30.09 "HgN/A
11:00 AM55 °FPassing clouds.6 mph47%30.12 "HgN/A
10:30 AM54 °FScattered clouds.5 mph51%30.12 "HgN/A
10:00 AM50 °FPartly sunny.6 mph54%30.15 "HgN/A
9:00 AM46 °FPartly sunny.6 mph62%30.15 "HgN/A
8:30 AM48 °FScattered clouds.5 mph58%30.15 "HgN/A
8:00 AM43 °FPassing clouds.6 mph71%30.15 "HgN/A
7:00 AM39 °FPassing clouds.3 mph75%30.12 "HgN/A
6:30 AM39 °FClear.2 mph75%30.12 "Hg10 mi
6:00 AM41 °FPassing clouds.3 mph70%30.12 "HgN/A
5:30 AM41 °FPassing clouds.3 mph70%30.12 "HgN/A
5:00 AM41 °FPassing clouds.5 mph70%30.12 "HgN/A
4:30 AM41 °FClear.7 mph70%30.12 "Hg10 mi
4:00 AM43 °FClear.5 mph71%30.12 "Hg10 mi
3:30 AM43 °FPassing clouds.5 mph66%30.12 "HgN/A
2:30 AM39 °FPassing clouds.3 mph75%30.12 "HgN/A
2:00 AM39 °FPassing clouds.5 mph75%30.15 "HgN/A
1:30 AM41 °FPassing clouds.3 mph70%30.15 "HgN/A
1:00 AM41 °FClear.5 mph70%30.15 "Hg10 mi
12:30 AM43 °FPassing clouds.3 mph66%30.15 "HgN/A
12:00 AM43 °FClear.5 mph66%30.15 "Hg10 mi
11:00 PM
Mon, Feb 8
43 °FPassing clouds.5 mph66%30.15 "HgN/A
10:30 PM43 °FPassing clouds.5 mph66%30.15 "HgN/A
10:00 PM43 °FPassing clouds.5 mph66%30.15 "HgN/A
9:30 PM45 °FPassing clouds.3 mph61%30.15 "HgN/A
9:00 PM43 °FClear.2 mph66%30.15 "Hg10 mi
8:30 PM46 °FPassing clouds.3 mph57%30.15 "HgN/A
8:00 PM46 °FPassing clouds.3 mph57%30.15 "HgN/A
Weather by CustomWeather, © 2016

See weather overviewHow to use our weather pages